アトラス彗星

P/2021 PE20 ( ATLAS )

English version
Home page
Updated on February 26, 2023

---------------------------------------------------------------------

・ プロフィール

発見日 2021年8月12日
発見光度 19.0等
発見者 Asteroid Terrestrial-Impact Last Alert System (ATLAS) search program

・ 軌道要素

Epoch 2023 Feb. 25.0 TT = JDT 2460000.5                                         
T 2021 June 7.02637 TT                                  Rudenko                 
q   1.2345703            (2000.0)            P               Q                  
n   0.13597469     Peri.  210.46428     +0.61388134     +0.71366803             
a   3.7453924      Node    99.63097     -0.63753520     +0.70025547             
e   0.6703762      Incl.   20.01137     -0.46550893     -0.01789444             
P   7.25                                                                        
>From 102 observations 2021 Aug. 9-Nov. 11, mean residual 0".6.                  

・ 光度変化

        m1 = 16.5 + 5 logΔ + 10.0 log r

---------------------------------------------------------------------

軌道要素はM.P.E.C. 2023-C66に掲載されたものです。
光度グラフはComet for Windowsで作成したものです。

---------------------------------------------------------------------

Copyright(C) Seiichi Yoshida (comet@aerith.net). All rights reserved.